Tampa Macdill AFB, FL

7:36 AM EDT on August 21, 2017 (GMT -0400)
MacDill Air Force Base

Weather History for KMCF - January, 2014

Change the Weather History Date:

Thursday, January 2, 2014

  Actual Average Record
Temperature  
Mean Temperature 68 °F -  
Max Temperature 77 °F 68 °F 84 °F (2017)
Min Temperature 60 °F 50 °F 34 °F (2008)
Cooling Degree Days 4    
Growing Degree Days 18 (Base 50)    
Moisture  
Dew Point 66 °F    
Average Humidity 99    
Maximum Humidity 100    
Minimum Humidity 83    
Precipitation  
Precipitation 0.49 in - - ()
Sea Level Pressure  
Sea Level Pressure 29.95 in    
Wind  
Wind Speed 8 mph (South)    
Max Wind Speed 20 mph    
Max Gust Speed 28 mph    
Visibility 6 miles    
Events Fog , Rain    
Averages and records for this station are not official NWS values.
T = Trace of Precipitation, MM = Missing Value Source: NWS Daily Summary

Daily Weather History Graph

Daily Weather History Graph

Search for Another Location

Airport or City:

Trip Planner

Search our weather history database for the weather conditions in past years. The results will help you decide how hot, cold, wet, or windy it might be!

Date:

Astronomy

Jan. 02, 2014 Rise Set
Actual Time 7:21 AM EST 5:47 PM EST
Civil Twilight 6:55 AM EST 6:12 PM EST
Nautical Twilight 6:26 AM EST 6:41 PM EST
Astronomical Twilight 5:58 AM EST 7:10 PM EST
Moon 8:11 AM EST (1/2) 7:31 PM EST (1/2)
Length of Visible Light 11h 16m
Length of Day
10h 25m
New Moon, 2% of the Moon is Illuminated
Jan 2
New Moon
Jan 7
First Quarter
Jan 15
Full
Jan 24
Last Quarter
Jan 30
New

Hourly Weather History & Observations

Time (EST) Temp. Dew Point Humidity Pressure Visibility Wind Dir Wind Speed Gust Speed Precip Events Conditions
12:33 AM 62.6 °F 62.6 °F 100% 30.06 in 10.0 mi East 8.1 mph - N/A   Overcast
12:58 AM 62.8 °F 62.8 °F 100% 30.06 in 10.0 mi East 8.1 mph - N/A   Overcast
1:58 AM 63.0 °F 63.0 °F 100% 30.04 in 10.0 mi ESE 8.1 mph - N/A   Overcast
2:08 AM 62.6 °F 62.6 °F 100% 30.03 in 10.0 mi ESE 5.8 mph - N/A   Overcast
2:38 AM 62.6 °F 62.6 °F 100% 30.01 in 8.0 mi SE 6.9 mph - N/A   Overcast
2:58 AM 63.0 °F 63.0 °F 100% 30.02 in 3.0 mi ESE 5.8 mph - N/A   Overcast
3:03 AM 62.6 °F 62.6 °F 100% 30.01 in 2.5 mi ESE 4.6 mph - N/A   Overcast
3:23 AM 62.6 °F 62.6 °F 100% 30.00 in 1.5 mi East 6.9 mph - N/A   Overcast
3:33 AM 62.6 °F 62.6 °F 100% 29.99 in 1.5 mi ESE 6.9 mph - N/A   Overcast
3:38 AM 62.6 °F 62.6 °F 100% 29.99 in 1.2 mi ESE 5.8 mph - N/A   Overcast
3:53 AM 62.6 °F 62.6 °F 100% 29.99 in 1.2 mi SE 5.8 mph - N/A   Overcast
3:58 AM 62.6 °F 62.6 °F 100% 30.00 in 1.2 mi ESE 5.8 mph - N/A   Overcast
4:13 AM 62.6 °F 62.6 °F 100% 29.98 in 1.2 mi ESE 4.6 mph - N/A   Overcast
4:18 AM 62.6 °F 62.6 °F 100% 29.98 in 1.0 mi SE 3.5 mph - N/A   Mist
4:53 AM 64.4 °F 64.4 °F 100% 29.97 in 1.2 mi SE 5.8 mph - N/A   Overcast
4:58 AM 63.5 °F 63.5 °F 100% 29.98 in 1.8 mi SSE 4.6 mph - N/A   Overcast
5:03 AM 64.4 °F 64.4 °F 100% 29.97 in 2.0 mi SSE 3.5 mph - N/A   Overcast
5:18 AM 64.4 °F 64.4 °F 100% 29.97 in 1.8 mi South 5.8 mph - N/A   Overcast
5:33 AM 64.4 °F 64.4 °F 100% 29.97 in 1.5 mi SSE 5.8 mph - N/A   Overcast
5:38 AM 64.4 °F 64.4 °F 100% 29.97 in 1.5 mi SSE 5.8 mph - N/A   Overcast
5:43 AM 64.4 °F 64.4 °F 100% 29.97 in 1.2 mi South 4.6 mph - N/A   Overcast
5:48 AM 64.4 °F 64.4 °F 100% 29.98 in 1.2 mi South 4.6 mph - N/A   Overcast
5:53 AM 64.4 °F 64.4 °F 100% 29.97 in 0.8 mi SSE 5.8 mph - N/A   Mist
5:58 AM 64.2 °F 64.2 °F 100% 29.99 in 0.8 mi SSE 5.8 mph - N/A   Mist
6:03 AM 64.4 °F 64.4 °F 100% 29.98 in 0.5 mi SSE 5.8 mph - N/A Fog Fog
6:43 AM 64.4 °F 64.4 °F 100% 29.97 in 0.8 mi SSE 5.8 mph - N/A   Mist
6:58 AM 64.8 °F 64.8 °F 100% 29.99 in 0.8 mi SSE 5.8 mph - N/A   Mist
7:18 AM 64.4 °F 64.4 °F 100% 29.97 in 0.5 mi SSE 5.8 mph - N/A Fog Fog
7:38 AM 64.4 °F 64.4 °F 100% 29.97 in 0.8 mi South 6.9 mph - N/A   Mist
7:43 AM 66.2 °F 66.2 °F 100% 29.97 in 0.8 mi South 8.1 mph - N/A   Mist
7:48 AM 66.2 °F 66.2 °F 100% 29.97 in 1.0 mi SSE 8.1 mph - N/A   Mist
7:53 AM 66.2 °F 66.2 °F 100% 29.97 in 1.2 mi South 6.9 mph - N/A   Overcast
7:58 AM 65.8 °F 65.8 °F 100% 29.98 in 1.8 mi South 9.2 mph - N/A   Overcast
8:03 AM 66.2 °F 66.2 °F 100% 29.97 in 3.0 mi South 8.1 mph - N/A   Overcast
8:23 AM 66.2 °F 66.2 °F 100% 29.97 in 10.0 mi SSE 6.9 mph - N/A   Overcast
8:43 AM 68.0 °F 68.0 °F 100% 29.97 in 10.0 mi SSE 9.2 mph - N/A   Mostly Cloudy
8:53 AM 68.0 °F 68.0 °F 100% 29.97 in 10.0 mi South 9.2 mph - N/A   Scattered Clouds
8:58 AM 68.2 °F 68.2 °F 100% 29.97 in 10.0 mi SSE 10.4 mph - N/A   Scattered Clouds
9:58 AM 71.8 °F 71.8 °F 100% 29.98 in 10.0 mi South 11.5 mph - N/A   Clear
10:58 AM 75.0 °F 72.5 °F 92% 29.97 in 10.0 mi SSW 17.3 mph - N/A   Mostly Cloudy
11:58 AM 75.9 °F 72.0 °F 87% 29.94 in 10.0 mi SSW 17.3 mph - N/A   Partly Cloudy
12:58 PM 77.4 °F 72.0 °F 83% 29.90 in 10.0 mi SSW 19.6 mph - N/A   Scattered Clouds
1:58 PM 75.4 °F 70.9 °F 86% 29.88 in 10.0 mi SW 15.0 mph - N/A   Clear
2:36 PM 73.4 °F 71.6 °F 94% 29.87 in 10.0 mi WSW 12.7 mph - N/A   Mostly Cloudy
2:46 PM 73.4 °F 71.6 °F 94% 29.87 in 5.0 mi WSW 18.4 mph 26.5 mph N/A   Mostly Cloudy
2:56 PM 71.6 °F 71.6 °F 100% 29.86 in 8.0 mi SW 13.8 mph 23.0 mph N/A   Mostly Cloudy
2:58 PM 72.1 °F 71.4 °F 98% 29.88 in 10.0 mi SW 13.8 mph 23.0 mph N/A   Mostly Cloudy
3:08 PM 71.6 °F 71.6 °F 100% 29.87 in 10.0 mi SW 15.0 mph 20.7 mph N/A   Mostly Cloudy
3:12 PM 71.6 °F 71.6 °F 100% 29.87 in 10.0 mi SW 15.0 mph - N/A   Light Drizzle
3:36 PM 69.8 °F 69.8 °F 100% 29.86 in 10.0 mi SW 8.1 mph - N/A   Mostly Cloudy
3:58 PM 69.3 °F 68.9 °F 99% 29.88 in 10.0 mi SW 10.4 mph - 0.01 in   Mostly Cloudy
4:58 PM 70.5 °F 70.5 °F 100% 29.88 in 10.0 mi SW 10.4 mph - N/A   Mostly Cloudy
5:18 PM 69.8 °F 69.8 °F 100% 29.88 in 10.0 mi SW 10.4 mph - N/A   Overcast
5:23 PM 69.8 °F 69.8 °F 100% 29.88 in 10.0 mi SW 10.4 mph - N/A   Overcast
5:31 PM 69.8 °F 69.8 °F 100% 29.88 in 10.0 mi SW 10.4 mph - N/A Rain Light Rain
5:41 PM 69.8 °F 69.8 °F 100% 29.87 in 2.5 mi SSW 13.8 mph - N/A Rain Heavy Rain
5:51 PM 69.8 °F 69.8 °F 100% 29.88 in 3.0 mi West 12.7 mph - N/A Rain Rain
5:56 PM 69.8 °F 69.8 °F 100% 29.88 in 2.5 mi WNW 8.1 mph - N/A Rain Heavy Rain
5:58 PM 69.8 °F 69.8 °F 100% 29.89 in 2.5 mi West 8.1 mph - 0.30 in Rain Heavy Rain
6:03 PM 69.8 °F 69.8 °F 100% 29.89 in 5.0 mi WNW 12.7 mph - N/A Rain Light Rain
6:08 PM 69.8 °F 69.8 °F 100% 29.89 in 5.0 mi West 10.4 mph 17.3 mph N/A Rain Heavy Rain
6:13 PM 69.8 °F 69.8 °F 100% 29.89 in 5.0 mi WNW 9.2 mph 17.3 mph N/A Rain Heavy Rain
6:49 PM 68.0 °F 68.0 °F 100% 29.91 in 9.0 mi West 5.8 mph - N/A   Mostly Cloudy
6:58 PM 68.0 °F 68.0 °F 100% 29.92 in 10.0 mi Variable 6.9 mph - 0.17 in   Mostly Cloudy
7:03 PM 68.0 °F 68.0 °F 100% 29.91 in 10.0 mi West 8.1 mph - N/A   Mostly Cloudy
7:58 PM 67.5 °F 67.5 °F 100% 29.89 in 10.0 mi SSE 2.3 mph - N/A   Overcast
8:58 PM 66.6 °F 66.6 °F 100% 29.92 in 10.0 mi West 4.6 mph - N/A   Overcast
9:28 PM 66.2 °F 66.2 °F 100% 29.93 in 10.0 mi Variable 5.8 mph - N/A   Light Drizzle
9:53 PM 66.2 °F 66.2 °F 100% 29.96 in 10.0 mi WNW 16.1 mph 27.6 mph N/A Rain Light Rain
9:58 PM 66.7 °F 66.7 °F 100% 29.97 in 10.0 mi WNW 15.0 mph 27.6 mph 0.00 in Rain Light Rain
10:02 PM 66.2 °F 66.2 °F 100% 29.96 in 10.0 mi NW 13.8 mph 27.6 mph N/A Rain Light Rain
10:28 PM 62.6 °F 60.8 °F 94% 29.97 in 10.0 mi NW 18.4 mph 27.6 mph N/A   Overcast
10:38 PM 60.8 °F 60.8 °F 100% 29.96 in 10.0 mi NW 13.8 mph 25.3 mph N/A   Mostly Cloudy
10:43 PM 60.8 °F 60.8 °F 100% 29.97 in 10.0 mi NW 15.0 mph 21.9 mph N/A   Mostly Cloudy
10:58 PM 60.8 °F 60.1 °F 97% 29.99 in 10.0 mi NW 13.8 mph 23.0 mph 0.01 in   Mostly Cloudy
11:58 PM 60.4 °F 57.2 °F 89% 30.02 in 10.0 mi NNW 11.5 mph 24.2 mph N/A   Overcast